Météo par heure à Dziadowki

Ce jour, 18 Janvier, Lundi

Heure Température Précipitation Vent Pression Humidité
00:00 -14°C° 0 mm 1 m/s 743 mmHg 94%
01:00 -16°C° 0 mm 2 m/s 743 mmHg 95%
02:00 -14°C° 0 mm 1 m/s 743 mmHg 94%
03:00 -14°C° 0 mm 1 m/s 743 mmHg 94%
04:00 -15°C° 0 mm 1 m/s 743 mmHg 94%
05:00 -15°C° 0 mm 1 m/s 743 mmHg 93%
06:00 -15°C° 0 mm 1 m/s 743 mmHg 93%
07:00 -15°C° 0 mm 1 m/s 743 mmHg 92%
08:00 -14°C° 0 mm 1 m/s 743 mmHg 89%
09:00 -13°C° 0 mm 1 m/s 743 mmHg 87%
10:00 -12°C° 0 mm 1 m/s 743 mmHg 85%
11:00 -11°C° 0 mm 1 m/s 743 mmHg 82%
12:00 -10°C° 0 mm 1 m/s 743 mmHg 80%
13:00 -9°C° 0 mm 1 m/s 743 mmHg 78%
14:00 -10°C° 0 mm 1 m/s 743 mmHg 81%
15:00 -10°C° 0 mm 1 m/s 742 mmHg 84%
16:00 -10°C° 0 mm 1 m/s 742 mmHg 87%
17:00 -11°C° 0 mm 1 m/s 742 mmHg 88%
18:00 -11°C° 0 mm 1 m/s 742 mmHg 88%
19:00 -13°C° 0 mm 2 m/s 742 mmHg 89%
20:00 -12°C° 0 mm 2 m/s 742 mmHg 89%
21:00 -12°C° 0 mm 2 m/s 742 mmHg 89%
22:00 -12°C° 0 mm 2 m/s 742 mmHg 89%
23:00 -10°C° 0 mm 2 m/s 742 mmHg 90%

Demain, 19 Janvier, Mardi

Heure Température Précipitation Vent Pression Humidité
00:00 -10°C° 0 mm 2 m/s 741 mmHg 92%
01:00 -9°C° 0 mm 2 m/s 741 mmHg 94%
02:00 -9°C° 0.1 mm 2 m/s 741 mmHg 94%
03:00 -8°C° 0.1 mm 2 m/s 740 mmHg 95%
04:00 -9°C° 0.1 mm 3 m/s 740 mmHg 95%
05:00 -8°C° 0.2 mm 3 m/s 740 mmHg 95%
06:00 -7°C° 0.2 mm 3 m/s 740 mmHg 95%
07:00 -6°C° 0.2 mm 3 m/s 739 mmHg 95%
08:00 -5°C° 0.2 mm 4 m/s 739 mmHg 94%
09:00 -4°C° 0.2 mm 4 m/s 739 mmHg 94%
10:00 -4°C° 0.2 mm 5 m/s 739 mmHg 94%
11:00 -2°C° 0.1 mm 5 m/s 739 mmHg 94%
12:00 -2°C° 0.1 mm 5 m/s 738 mmHg 94%
13:00 -2°C° 0.1 mm 5 m/s 738 mmHg 94%
14:00 -2°C° 0 mm 4 m/s 738 mmHg 93%
15:00 -2°C° 0 mm 4 m/s 737 mmHg 92%
16:00 -1°C° 0 mm 3 m/s 737 mmHg 91%
17:00 -3°C° 0.2 mm 4 m/s 737 mmHg 92%
18:00 -3°C° 0.2 mm 4 m/s 737 mmHg 94%
19:00 -3°C° 0.2 mm 4 m/s 736 mmHg 96%
20:00 -3°C° 0.3 mm 4 m/s 736 mmHg 96%
21:00 -4°C° 0.3 mm 5 m/s 736 mmHg 96%
22:00 -4°C° 0.3 mm 5 m/s 735 mmHg 95%
23:00 -4°C° 0.5 mm 5 m/s 735 mmHg 96%

Après-demain, 20 Janvier, Mercredi

Heure Température Précipitation Vent Pression Humidité
00:00 -4°C° 0.5 mm 5 m/s 735 mmHg 96%
01:00 -4°C° 0.5 mm 5 m/s 734 mmHg 97%
02:00 -2°C° 0.9 mm 5 m/s 734 mmHg 97%
03:00 -2°C° 0.9 mm 5 m/s 734 mmHg 97%
04:00 -1°C° 0.9 mm 5 m/s 734 mmHg 97%
05:00 -1°C° 0.4 mm 5 m/s 734 mmHg 97%
06:00 0°C° 0.4 mm 4 m/s 734 mmHg 96%
07:00 0°C° 0.4 mm 4 m/s 734 mmHg 95%
08:00 0°C° 0 mm 4 m/s 734 mmHg 96%
09:00 0°C° 0 mm 4 m/s 734 mmHg 97%
10:00 0°C° 0 mm 4 m/s 734 mmHg 97%
11:00 0°C° 0 mm 4 m/s 734 mmHg 97%
12:00 0°C° 0 mm 4 m/s 734 mmHg 97%
13:00 +1°C° 0 mm 4 m/s 734 mmHg 96%
14:00 0°C° 0 mm 4 m/s 734 mmHg 93%
15:00 0°C° 0 mm 4 m/s 734 mmHg 89%
16:00 0°C° 0 mm 4 m/s 734 mmHg 86%
17:00 0°C° 0 mm 4 m/s 734 mmHg 85%
18:00 0°C° 0 mm 4 m/s 734 mmHg 84%
19:00 0°C° 0 mm 3 m/s 734 mmHg 83%
20:00 0°C° 0 mm 3 m/s 734 mmHg 83%
21:00 0°C° 0 mm 3 m/s 734 mmHg 83%
22:00 -1°C° 0 mm 3 m/s 734 mmHg 82%
23:00 -1°C° 0 mm 3 m/s 734 mmHg 83%

21 Janvier, Jeudi

Heure Température Précipitation Vent Pression Humidité
00:00 -1°C° 0 mm 3 m/s 734 mmHg 84%
01:00 -2°C° 0 mm 3 m/s 734 mmHg 85%
02:00 -2°C° 0 mm 3 m/s 733 mmHg 85%
03:00 -2°C° 0 mm 2 m/s 733 mmHg 85%
04:00 -2°C° 0 mm 2 m/s 733 mmHg 85%
05:00 -2°C° 0 mm 2 m/s 733 mmHg 85%
06:00 -2°C° 0 mm 2 m/s 733 mmHg 85%
07:00 -2°C° 0 mm 2 m/s 733 mmHg 85%
08:00 -2°C° 0 mm 2 m/s 733 mmHg 87%
09:00 -1°C° 0 mm 2 m/s 733 mmHg 89%
10:00 +1°C° 0 mm 2 m/s 732 mmHg 91%
11:00 +1°C° 0 mm 2 m/s 732 mmHg 93%
12:00 +2°C° 0 mm 2 m/s 732 mmHg 95%
13:00 +2°C° 0 mm 2 m/s 731 mmHg 97%
14:00 +1°C° 0 mm 3 m/s 731 mmHg 93%
15:00 +1°C° 0 mm 3 m/s 731 mmHg 90%
16:00 +1°C° 0 mm 3 m/s 730 mmHg 86%
17:00 +1°C° 0 mm 3 m/s 730 mmHg 87%
18:00 0°C° 0 mm 4 m/s 730 mmHg 88%
19:00 0°C° 0 mm 4 m/s 730 mmHg 89%
20:00 0°C° 0 mm 4 m/s 730 mmHg 88%
21:00 0°C° 0 mm 4 m/s 730 mmHg 87%
22:00 0°C° 0 mm 5 m/s 730 mmHg 86%
23:00 0°C° 0 mm 4 m/s 730 mmHg 87%

22 Janvier, Vendredi

Heure Température Précipitation Vent Pression Humidité
00:00 +1°C° 0 mm 3 m/s 730 mmHg 87%
01:00 +1°C° 0 mm 3 m/s 729 mmHg 87%
02:00 +1°C° 0 mm 3 m/s 729 mmHg 87%
03:00 +1°C° 0 mm 3 m/s 729 mmHg 87%
04:00 +1°C° 0 mm 3 m/s 728 mmHg 88%
05:00 +1°C° 0 mm 3 m/s 728 mmHg 88%
06:00 0°C° 0 mm 4 m/s 727 mmHg 88%
07:00 0°C° 0 mm 4 m/s 727 mmHg 88%
08:00 +1°C° 0 mm 4 m/s 727 mmHg 90%
09:00 +1°C° 0 mm 4 m/s 726 mmHg 93%
10:00 +1°C° 0 mm 5 m/s 726 mmHg 95%
11:00 +3°C° 0 mm 4 m/s 726 mmHg 96%
12:00 +3°C° 0 mm 4 m/s 726 mmHg 96%
13:00 +3°C° 0 mm 4 m/s 726 mmHg 96%
14:00 +3°C° 0 mm 3 m/s 726 mmHg 95%
15:00 +3°C° 0 mm 3 m/s 726 mmHg 93%
16:00 +3°C° 0 mm 3 m/s 726 mmHg 92%
17:00 +3°C° 0 mm 2 m/s 726 mmHg 92%
18:00 +3°C° 0 mm 2 m/s 726 mmHg 93%
19:00 +4°C° 0 mm 1 m/s 727 mmHg 93%
20:00 +4°C° 1.3 mm 1 m/s 727 mmHg 95%
21:00 +3°C° 1.3 mm 1 m/s 727 mmHg 96%
22:00 +3°C° 1.3 mm 1 m/s 727 mmHg 97%
23:00 +2°C° 0.9 mm 2 m/s 727 mmHg 97%

23 Janvier, Samedi

Heure Température Précipitation Vent Pression Humidité
00:00 +1°C° 0.9 mm 3 m/s 727 mmHg 98%
01:00 -1°C° 0.9 mm 4 m/s 727 mmHg 98%
02:00 -1°C° 0.4 mm 4 m/s 728 mmHg 98%
03:00 -1°C° 0.4 mm 4 m/s 728 mmHg 98%
04:00 -1°C° 0.4 mm 4 m/s 728 mmHg 97%
05:00 -1°C° 0 mm 4 m/s 728 mmHg 97%
06:00 0°C° 0 mm 3 m/s 728 mmHg 97%
07:00 0°C° 0 mm 3 m/s 729 mmHg 97%
08:00 0°C° 0 mm 3 m/s 729 mmHg 97%
09:00 0°C° 0 mm 3 m/s 729 mmHg 96%
10:00 0°C° 0 mm 3 m/s 730 mmHg 96%
11:00 0°C° 0 mm 3 m/s 730 mmHg 95%
12:00 0°C° 0 mm 3 m/s 730 mmHg 94%
13:00 +2°C° 0 mm 2 m/s 730 mmHg 93%
14:00 +1°C° 0 mm 2 m/s 730 mmHg 93%
15:00 +1°C° 0 mm 2 m/s 730 mmHg 93%
16:00 +1°C° 0 mm 1 m/s 730 mmHg 93%
17:00 -1°C° 0 mm 2 m/s 730 mmHg 93%
18:00 -1°C° 0 mm 2 m/s 730 mmHg 93%
19:00 -1°C° 0 mm 3 m/s 730 mmHg 93%
20:00 -1°C° 0 mm 3 m/s 729 mmHg 92%
21:00 -1°C° 0 mm 3 m/s 729 mmHg 91%
22:00 -2°C° 0 mm 3 m/s 729 mmHg 91%
23:00 -2°C° 0 mm 3 m/s 729 mmHg 90%
Voir plus

Nous avons besoin de votre consentement

Meteoprog et ses fournisseurs de services peuvent stocker et accéder à des données personnelles telles que des cookies, des identifiants d'appareils ou d'autres technologies similaires sur votre appareil et traiter ces données pour personnaliser le contenu et les publicités, ainsi que pour fournir des fonctionnalités de médias sociaux et analyser le trafic.

  • Stocker et/ou accéder à des informations sur votre appareil

    Des cookies, des identifiants d'appareils ou d'autres informations peuvent être stockés ou accessibles sur votre appareil aux fins indiquées ci-dessus.

  • Annonces et contenus personnalisés, mesure des annonces et des contenus, connaissance de l'audience et développement de produits

    Les annonces et le contenu peuvent être personnalisés en fonction d'un profil. D'autres données peuvent être ajoutées pour mieux personnaliser les annonces et le contenu. Les performances des publicités et du contenu peuvent être mesurées. Il est possible d'obtenir des informations sur le public qui a vu les publicités et le contenu. Ces données peuvent être utilisées pour développer ou améliorer l'expérience de l'utilisateur, les systèmes et les logiciels.

En cliquant sur "J'accepte", vous autorisez l'utilisation de cookies, des identifiants d'appareils, des balises web ou d'autres technologies similaires. Vos paramètres peuvent être modifiés dans le navigateur de votre appareil.

Dans certains cas, des intérêts légitimes peuvent être invoqués plutôt qu'un consentement. Vous pouvez en savoir plus à ce sujet dans notre Politique de confidentialité et de cookies.